TimeCDT,TemperatureF,Dew PointF,Humidity,Sea Level PressureIn,VisibilityMPH,Wind Direction,Wind SpeedMPH,Gust SpeedMPH,PrecipitationIn,Events,Conditions,WindDirDegrees,DateUTC
12:15 AM,73.4,62.6,69,30.15,10.0,SE,5.8,-,N/A,,Clear,140,2013-06-21 05:15:00
12:35 AM,72.9,62.6,70,30.15,10.0,SE,4.6,-,N/A,,Clear,130,2013-06-21 05:35:00
12:55 AM,72.5,62.6,71,30.15,10.0,SE,3.5,-,N/A,,Clear,130,2013-06-21 05:55:00
1:15 AM,71.8,62.4,72,30.15,10.0,SSE,3.5,-,N/A,,Clear,150,2013-06-21 06:15:00
1:35 AM,71.6,61.9,71,30.15,10.0,SE,5.8,-,N/A,,Clear,140,2013-06-21 06:35:00
1:55 AM,70.9,62.1,74,30.14,10.0,SE,4.6,-,N/A,,Clear,140,2013-06-21 06:55:00
2:15 AM,70.3,61.9,74,30.14,10.0,SE,4.6,-,N/A,,Clear,140,2013-06-21 07:15:00
2:55 AM,69.1,61.7,77,30.14,10.0,SE,4.6,-,N/A,,Clear,140,2013-06-21 07:55:00
3:15 AM,69.4,61.7,76,30.14,10.0,SE,4.6,-,N/A,,Clear,140,2013-06-21 08:15:00
3:55 AM,68.9,61.7,78,30.14,10.0,SSE,3.5,-,N/A,,Clear,160,2013-06-21 08:55:00
4:15 AM,68.5,61.7,79,30.14,10.0,SSE,3.5,-,N/A,,Clear,150,2013-06-21 09:15:00
4:35 AM,68.2,61.7,80,30.14,10.0,SE,3.5,-,N/A,,Clear,140,2013-06-21 09:35:00
4:55 AM,68.0,61.5,80,30.15,10.0,SE,3.5,-,N/A,,Clear,140,2013-06-21 09:55:00
5:15 AM,68.2,61.7,80,30.15,10.0,SE,3.5,-,N/A,,Clear,140,2013-06-21 10:15:00
5:35 AM,68.2,61.7,80,30.15,10.0,SE,4.6,-,N/A,,Clear,140,2013-06-21 10:35:00
5:55 AM,68.4,61.7,79,30.15,10.0,SSE,3.5,-,N/A,,Clear,150,2013-06-21 10:55:00
6:15 AM,68.9,61.7,78,30.15,10.0,SSE,3.5,-,N/A,,Clear,150,2013-06-21 11:15:00
6:35 AM,70.3,62.1,75,30.15,10.0,SSE,3.5,-,N/A,,Clear,150,2013-06-21 11:35:00
6:55 AM,72.0,62.6,72,30.16,10.0,SE,3.5,-,N/A,,Clear,140,2013-06-21 11:55:00
7:15 AM,73.6,63.1,70,30.16,10.0,SSE,8.1,-,N/A,,Clear,150,2013-06-21 12:15:00
7:35 AM,75.7,64.2,67,30.15,10.0,SSE,9.2,-,N/A,,Clear,160,2013-06-21 12:35:00
8:15 AM,79.5,65.3,62,30.14,10.0,South,10.4,-,N/A,,Clear,180,2013-06-21 13:15:00
8:35 AM,81.3,65.3,58,30.14,10.0,South,11.5,-,N/A,,Clear,170,2013-06-21 13:35:00
8:55 AM,82.8,64.9,55,30.13,10.0,South,15.0,-,N/A,,Clear,180,2013-06-21 13:55:00
9:15 AM,84.0,64.8,52,30.14,10.0,South,12.7,-,N/A,,Clear,170,2013-06-21 14:15:00
9:35 AM,84.7,64.2,50,30.14,10.0,South,12.7,-,N/A,,Clear,170,2013-06-21 14:35:00
9:55 AM,85.8,64.2,48,30.14,10.0,South,11.5,18.4,N/A,,Clear,190,2013-06-21 14:55:00
10:15 AM,86.4,64.9,49,30.15,10.0,SSW,8.1,16.1,N/A,,Clear,200,2013-06-21 15:15:00
10:35 AM,87.1,65.5,48,30.14,10.0,South,13.8,18.4,N/A,,Clear,180,2013-06-21 15:35:00
10:55 AM,87.8,65.3,47,30.14,10.0,South,13.8,19.6,N/A,,Clear,190,2013-06-21 15:55:00
11:15 AM,88.9,65.3,45,30.14,10.0,South,11.5,-,N/A,,Clear,180,2013-06-21 16:15:00
11:35 AM,88.9,64.2,44,30.14,10.0,SSW,11.5,17.3,N/A,,Clear,200,2013-06-21 16:35:00
11:55 AM,89.6,64.8,44,30.13,10.0,SSW,12.7,17.3,N/A,,Clear,200,2013-06-21 16:55:00
12:15 PM,90.1,63.0,40,30.13,10.0,SSW,12.7,21.9,N/A,,Clear,200,2013-06-21 17:15:00
12:35 PM,89.6,63.9,42,30.13,10.0,SSW,13.8,20.7,N/A,,Clear,200,2013-06-21 17:35:00
12:55 PM,90.5,64.2,42,30.12,10.0,South,9.2,17.3,N/A,,Clear,190,2013-06-21 17:55:00
1:15 PM,90.9,63.5,40,30.12,10.0,SSW,12.7,18.4,N/A,,Clear,200,2013-06-21 18:15:00
1:35 PM,91.0,63.5,40,30.12,10.0,SSW,10.4,17.3,N/A,,Clear,200,2013-06-21 18:35:00
1:55 PM,90.9,61.5,37,30.11,10.0,SSW,12.7,19.6,N/A,,Clear,200,2013-06-21 18:55:00
2:15 PM,90.5,61.2,37,30.11,10.0,SW,11.5,21.9,N/A,,Clear,220,2013-06-21 19:15:00
2:35 PM,91.8,61.9,37,30.11,10.0,SW,8.1,17.3,N/A,,Clear,220,2013-06-21 19:35:00
2:55 PM,91.0,61.3,37,30.11,10.0,South,9.2,-,N/A,,Clear,190,2013-06-21 19:55:00
3:15 PM,90.5,61.0,37,30.11,10.0,SSW,9.2,16.1,N/A,,Scattered Clouds,200,2013-06-21 20:15:00
3:35 PM,88.9,62.2,41,30.13,10.0,SW,3.5,-,N/A,,Scattered Clouds,230,2013-06-21 20:35:00
3:55 PM,79.3,64.4,60,30.16,10.0,North,20.7,32.2,N/A,,Scattered Clouds,360,2013-06-21 20:55:00
5:55 PM,76.5,68.5,76,30.03,10.0,SE,19.6,25.3,0.02,Rain,Light Rain,140,2013-06-21 22:55:00
6:15 PM,74.8,68.9,82,29.98,10.0,SSE,16.1,21.9,N/A,,Clear,150,2013-06-21 23:15:00
6:35 PM,75.4,68.0,78,29.97,10.0,South,13.8,-,N/A,,Clear,190,2013-06-21 23:35:00
6:55 PM,76.1,67.5,74,30.00,10.0,SE,5.8,-,N/A,,Clear,140,2013-06-21 23:55:00
7:15 PM,76.3,67.3,74,30.01,10.0,SSW,8.1,-,N/A,,Clear,200,2013-06-22 00:15:00
7:35 PM,76.8,67.8,74,30.04,10.0,Calm,Calm,-,N/A,,Clear,0,2013-06-22 00:35:00
7:55 PM,76.1,68.5,77,30.07,10.0,East,6.9,-,N/A,,Clear,100,2013-06-22 00:55:00
8:15 PM,75.9,68.2,77,30.07,10.0,ESE,8.1,-,N/A,,Clear,110,2013-06-22 01:15:00
8:35 PM,75.2,65.3,71,30.08,10.0,SE,9.2,-,N/A,,Clear,130,2013-06-22 01:35:00
8:55 PM,74.5,65.8,74,30.08,10.0,SSE,8.1,-,N/A,,Clear,150,2013-06-22 01:55:00
9:15 PM,74.3,66.2,76,30.08,10.0,SSE,6.9,-,N/A,,Clear,150,2013-06-22 02:15:00
9:55 PM,74.3,67.1,78,30.09,10.0,South,5.8,-,N/A,,Clear,180,2013-06-22 02:55:00
10:15 PM,75.4,67.1,75,30.09,10.0,South,6.9,-,N/A,,Clear,190,2013-06-22 03:15:00
10:35 PM,76.1,66.4,72,30.10,10.0,South,5.8,-,N/A,,Clear,190,2013-06-22 03:35:00
10:55 PM,74.5,67.1,78,30.10,10.0,South,3.5,-,N/A,,Clear,170,2013-06-22 03:55:00
11:15 PM,73.8,67.1,80,30.10,10.0,SSW,3.5,-,N/A,,Clear,210,2013-06-22 04:15:00
11:35 PM,74.1,67.1,79,30.11,10.0,SSE,3.5,-,N/A,,Clear,150,2013-06-22 04:35:00
11:55 PM,73.8,67.1,80,30.11,10.0,SE,3.5,-,N/A,,Clear,140,2013-06-22 04:55:00